星链-32436 (STARLINK-32436)

导读

STARLINK-32436是美国SpaceX公司星链(Starlink)星座的一员,于2024年9月20日发射入轨。作为低轨(LEO)宽带卫星,它运行在约550公里高度近圆轨道,每日绕地球飞行十余圈,是全球星链星座组网计划的组成部分,旨在为全球偏远地区提供低延迟高速宽带互联网接入服务。截至2026年3月,卫星在轨正常运行,为星座服务覆盖提供支撑。

基本信息
目录编号:
61215
目录名称:
STARLINK-32436
国际标识:
2024-171R
轨道中心:
EARTH
卫星名称:
星链-32436
卫星全名:
星链-32436 (STARLINK-32436)
卫星状态:
在轨 (已飞行714 天)
发射日期:
2024-09-20 UTC
国别 :
美国 (US)
星等 :
--
轨道信息
数据来源 国际轨道数据 AOE轨道数据
星历时间 2026-09-03T13:10:32+0800
23小时前
查看轨道信息
2026-08-29T22:00:00+0800
5天前
查看轨道信息
半长轴 6840.846km 6840.863km
偏心率 0.0001456 0.0001871
轨道倾角 53.160° 53.160°
近地点辐角 94.089° 85.156°
升交点赤经 214.656° 236.310°
平近点角 266.028° 232.710°
近地点 461.712km 461.446km
远地点 463.706km 464.006km
周期 93.848分钟 93.848分钟
每日圈数 15.343983 15.343926
详细信息
固有亮度:
5
最大亮度:
2.5
卫星平台:
Starlink V1.0
覆盖范围:
全球
运营商:
太空探索技术公司
运营商所在国:
美国
制造商(研发单位):
太空探索技术公司
制造商所在国:
美国
使用方式:
暂无
卫星简介
Starlink 计划是 SpaceX 推出的全球卫星互联网项目,通过发射低轨道卫星,为全球尤其是偏远地区提供高速、低延迟的互联网服务。自 2019 年起,Starlink 已部署数千颗卫星,旨在缩小全球数字鸿沟,推动互联网普及。该项目还为军事、航空等行业提供通信支持,带来广泛经济效益。
2D轨道图
3D轨道图
轨道高度分析图
轨道倾角分析图
轨道综合分析图
查看轨道综合分析图